Weather History for Piney Island, NC

Change the Weather History Date:

Thursday, May 10, 2012

  Actual Average (KMRH) Record (KMRH)
Temperature  
Mean Temperature 70 °F -  
Max Temperature 79 °F 74 °F 91 °F (1964)
Min Temperature 64 °F 55 °F 42 °F (1977)
Cooling Degree Days 4    
Growing Degree Days 20 (Base 50)    
Moisture  
Dew Point 54 °F    
Average Humidity 61    
Maximum Humidity 83    
Minimum Humidity 31    
Precipitation  
Precipitation 0.00 in - - ()
Sea Level Pressure  
Sea Level Pressure 29.75 in    
Wind  
Wind Speed 14 mph (NW)    
Max Wind Speed 20 mph    
Max Gust Speed 25 mph    
Visibility 10 miles    
Events      
Averages and records for this station are not official NWS values.
T = Trace of Precipitation, MM = Missing Value Source: NWS Daily Summary

Daily Weather History Graph

Daily Weather History Graph

Search for Another Location

Airport:

Trip Planner

Search our weather history database for the weather conditions in past years. The results will help you decide how hot, cold, wet, or windy it might be!

Date:

Astronomy

May. 10, 2012 Rise Set
Actual Time 6:05 AM EDT 7:59 PM EDT
Civil Twilight 5:38 AM EDT 8:26 PM EDT
Nautical Twilight 5:04 AM EDT 9:00 PM EDT
Astronomical Twilight 4:28 AM EDT 9:36 PM EDT
Moon No Moon Rise 10:28 AM EDT (5/10)
Length of Visible Light 14h 48m
Length of Day
13h 53m
Waning Gibbous, 73% of the Moon is Illuminated
May 10
Waning Gibbous
May 12
Last Quarter
May 20
New
May 28
First Quarter
Jun 4
Full

Hourly Weather History & Observations

Time (EDT) Temp. Dew Point Humidity Pressure Visibility Wind Dir Wind Speed Gust Speed Precip Events Conditions
12:17 AM 69.8 °F - N/A% 29.63 in 10.0 mi West 19.6 mph - N/A   Mostly Cloudy
12:56 AM 69.1 °F - N/A% 29.64 in 10.0 mi WNW 16.1 mph - N/A   Overcast
1:46 AM 68.0 °F - N/A% 29.63 in 10.0 mi NW 17.3 mph 24.2 mph N/A   Overcast
1:56 AM 68.0 °F - N/A% 29.65 in 10.0 mi WNW 16.1 mph - N/A   Overcast
2:26 AM 66.2 °F 60.8 °F 83% 29.64 in 10.0 mi NW 13.8 mph - N/A   Overcast
2:56 AM 66.0 °F 60.1 °F 81% 29.66 in 10.0 mi WNW 18.4 mph 25.3 mph N/A   Overcast
3:17 AM 66.2 °F 60.8 °F 83% 29.65 in 10.0 mi WNW 15.0 mph 20.7 mph N/A   Overcast
3:25 AM 66.2 °F 60.8 °F 83% 29.65 in 10.0 mi WNW 13.8 mph 21.9 mph N/A   Overcast
3:33 AM 66.2 °F 60.8 °F 83% 29.65 in 10.0 mi NW 13.8 mph 23.0 mph N/A   Overcast
3:56 AM 66.0 °F 60.1 °F 81% 29.67 in 10.0 mi NW 15.0 mph - N/A   Overcast
4:56 AM 66.0 °F 59.0 °F 78% 29.68 in 10.0 mi NW 13.8 mph - N/A   Mostly Cloudy
5:05 AM 66.2 °F 57.2 °F 73% 29.66 in 10.0 mi NW 12.7 mph - N/A   Scattered Clouds
5:56 AM 64.9 °F 57.0 °F 75% 29.69 in 10.0 mi NW 13.8 mph - N/A   Clear
6:56 AM 64.9 °F 57.9 °F 78% 29.72 in 10.0 mi NW 12.7 mph - N/A   Clear
7:56 AM 66.0 °F 59.0 °F 78% 29.74 in 10.0 mi NW 12.7 mph - N/A   Scattered Clouds
8:56 AM 68.0 °F 55.9 °F 65% 29.76 in 10.0 mi NW 13.8 mph - N/A   Clear
9:10 AM 68.0 °F 57.2 °F 68% 29.75 in 2.5 mi NW 12.7 mph - N/A   Haze
9:18 AM 68.0 °F 57.2 °F 68% 29.75 in 10.0 mi NW 10.4 mph - N/A   Clear
9:56 AM 69.1 °F 55.0 °F 61% 29.77 in 10.0 mi NNW 10.4 mph - N/A   Clear
10:56 AM 71.1 °F 52.0 °F 51% 29.79 in 10.0 mi NW 10.4 mph - N/A   Clear
11:56 AM 73.0 °F 52.0 °F 48% 29.80 in 10.0 mi North 9.2 mph - N/A   Clear
12:56 PM 73.9 °F 48.9 °F 41% 29.79 in 10.0 mi NNW 4.6 mph - N/A   Partly Cloudy
1:56 PM 73.9 °F 50.0 °F 43% 29.79 in 10.0 mi WNW 5.8 mph - N/A   Partly Cloudy
2:56 PM 73.9 °F 52.0 °F 46% 29.79 in 10.0 mi NE 6.9 mph - N/A   Mostly Cloudy
3:56 PM 75.9 °F 48.9 °F 38% 29.80 in 10.0 mi Calm Calm - N/A   Mostly Cloudy
4:56 PM 75.0 °F 50.0 °F 41% 29.81 in 10.0 mi Calm Calm - N/A   Mostly Cloudy
5:56 PM 75.9 °F 43.0 °F 31% 29.83 in 10.0 mi NW 6.9 mph - N/A   Mostly Cloudy
6:56 PM 75.9 °F 46.9 °F 36% 29.84 in 10.0 mi NW 11.5 mph - N/A   Mostly Cloudy
7:56 PM 73.0 °F 48.0 °F 41% 29.87 in 10.0 mi NW 9.2 mph - N/A   Mostly Cloudy
8:56 PM 71.1 °F 46.9 °F 42% 29.89 in 10.0 mi NW 10.4 mph - N/A   Clear
9:56 PM 70.0 °F 48.9 °F 47% 29.92 in 10.0 mi NW 9.2 mph - N/A   Clear
10:56 PM 69.1 °F 51.1 °F 53% 29.94 in 10.0 mi NW 8.1 mph - N/A   Clear
11:56 PM 66.9 °F 52.0 °F 59% 29.96 in 10.0 mi NW 5.8 mph - N/A   Clear